Regional Weather Roundup
Issued by NWS

Home | Current Version | Previous Version | Graphics & Text | Print | Product List | Glossary On
Versions: 1 2 3 4 5 6 7 8 9 10 11 12 13 14 15 16 17 18 19 20 21 22 23 24 25 26 27 28 29 30 31 32 33 34 35 36 37 38 39 40 41 42 43 44 45 46 47 48 49 50
000
ASUS43 KMPX 271101
RWRMN
WEATHER ROUNDUP FOR MINNESOTA
NATIONAL WEATHER SERVICE TWIN CITIES/CHANHASSEN MN
500 AM CST SAT DEC 27 2014


NOTE: "FAIR" INDICATES FEW OR NO CLOUDS BELOW 12,000 FEET WITH NO
SIGNIFICANT WEATHER AND/OR OBSTRUCTIONS TO VISIBILITY. N/A MEANS
CURRENT SKY AND/OR WEATHER CONDITIONS ARE NOT AVAILABLE.

MNZ060>063-068>070-271200-
   Twin Cities Metro

CITY           SKY/WX    TMP DP  RH WIND       PRES   REMARKS
TWIN CITIES    LGT SNOW  24  22  91 NW13      30.00F VSB 3/4 WCI  12
ST PAUL        LGT SNOW  25  23  92 NW14      30.01F VSB 3/4 WCI  13
CRYSTAL        LGT SNOW  25  22  88 NW10      30.01S VSB 3/4 WCI  15
BLAINE         LGT SNOW  25  25 100 NW12      30.01S VSB 3/4 WCI  14
LAKEVILLE      LGT SNOW  23  21  93 NW15      29.98R WCI  10
EDEN PRAIRIE   LGT SNOW  24  20  84 NW14G21   30.00R FOG     WCI  12
SOUTH ST PAUL  LGT SNOW  26  24  92 N12       29.99S WCI  15
LAKE ELMO      LGT SNOW  27  25  93 N12G18    29.98F VSB 3/4 WCI  16
$$
MNZ001>005-007-008-013>017-022>024-027-028-271200-
   Northwest Minnesota

CITY           SKY/WX    TMP DP  RH WIND       PRES   REMARKS
BEMIDJI        FLURRIES  11   7  85 NW9       30.08S WCI  -2
HALLOCK        CLOUDY     3   1  92 SW8       30.12F WCI -10
ROSEAU         FLURRIES  10   5  79 SW6       30.11F WCI   1
WARROAD        FLURRIES   9   3  78 SW6       30.11F WCI  -1
THIEF RVR FALL CLOUDY     7   5  92 W3        30.12F
CROOKSTON      CLOUDY     5   1  85 CALM      30.17F
FOSSTON        FLURRIES   7   5  92 CALM      30.12S
DETROIT LAKES  LGT SNOW  10   9  92 NW7       30.12R WCI   0
MOORHEAD       CLEAR      3   3 100 NW3       30.17F
PARK RAPIDS    CLOUDY    15  10  80 NW10      30.06F WCI   2
MAHNOMEN       FLURRIES   8   5  89 W8        30.12F WCI  -5
$$
MNZ006-009>011-018-025>026-271200-
   North Central Minnesota

CITY           SKY/WX    TMP DP  RH WIND       PRES   REMARKS
BAUDETTE       CLOUDY    11   5  77 VRB5      30.09F WCI   3
FLAG ISLAND    CLOUDY     9   3  78 SW5       30.09F WCI   0
INTL FALLS     CLOUDY    11   5  77 NW6       30.08F WCI   1
WASKISH        FLURRIES  14   9  79 CALM      30.09F
BIG FORK       FLURRIES  16  10  79 CALM      30.06F
LONGVILLE      CLOUDY    18  12  79 N3        30.06S
GRAND RAPIDS   CLOUDY    18  12  79 N6        30.03F WCI   9
CRANE LAKE     FLURRIES  12   9  85 N6        30.09F WCI   3
ORR            FLURRIES  14   9  79 NW3       30.03F
COOK           FLURRIES  16   9  73 CALM      30.05F
WALKER         CLOUDY    15  10  80 N7        30.07S WCI   5
$$
MNZ012-019>021-037-271200-
   Northeast Minnesota

CITY           SKY/WX    TMP DP  RH WIND       PRES   REMARKS
DULUTH         CLOUDY    21  15  78 N13       29.98F WCI   9
ELY            CLOUDY    16  10  79 CALM      30.03F
HIBBING        CLOUDY    17   9  70 N9        30.03F WCI   6
EVELETH        MIX PCPN  18  14  86 N5        30.03F WCI  11
DULUTH HARBOR  CLOUDY    27  21  80 N15       30.03F WCI  15
TWO HARBORS    CLOUDY    25  19  80 N6        29.98F WCI  18
GRAND MARAIS     N/A     25  17  72 N12       30.03F WCI  14
G MARAIS ARPRT CLOUDY    18  12  79 N7        29.98F WCI   8
$$
MNZ029>031-032-039>041-046>048-054>057-064-271200-
   West Central Minnesota

CITY           SKY/WX    TMP DP  RH WIND       PRES   REMARKS
FERGUS FALLS   MOCLDY     7   1  78 NW7       30.19R WCI  -5
WHEATON        PTCLDY     7   3  85 W7        30.20S WCI  -5
MORRIS         CLOUDY    12   9  85 NW14      30.13S WCI  -3
ALEXANDRIA     CLOUDY    17  13  84 NW12      30.09S WCI   4
ELBOW LAKE     MOCLDY     9   6  89 NW9       30.14S WCI  -4
WADENA         CLOUDY    16  12  86 NW8       30.08S WCI   5
GLENWOOD       CLOUDY    18  14  86 NW14      30.09S WCI   4
APPLETON       CLOUDY    14  10  85 NW16      30.15S WCI  -2
BENSON         CLOUDY    16  10  79 N15       30.12S WCI   1
ORTONVILLE     CLOUDY    10   5  79 NW12      30.16S WCI  -4
MADISON        CLOUDY    16  10  79 NW14      30.15S WCI   1
WILLMAR        CLOUDY    19  16  86 NW20      30.10R WCI   4
$$
MNZ033>034-036-042>043-049>051-058-059-271200-
   Central Minnesota

CITY           SKY/WX    TMP DP  RH WIND       PRES   REMARKS
ST CLOUD       CLOUDY    25  17  72 NW9       30.05S WCI  15
SAUK CENTRE    CLOUDY    21  17  83 NW10      30.07S WCI  10
PAYNESVILLE    CLOUDY    20  16  86 W8        30.07S WCI  10
AITKIN         CLOUDY    23  16  74 N8        30.03S WCI  14
PINE RIVER     CLOUDY    19  12  73 N6        30.09S WCI  11
BRAINERD       CLOUDY    20  15  81 N9        30.06S WCI   9
STAPLES        CLOUDY    18  14  86 NW8       30.07S WCI   7
LONG PRAIRIE   CLOUDY    21  18  86 NW9       30.07S WCI  11
LITTLE FALLS   CLOUDY    23  16  74 NW5       30.06F WCI  17
LITCHFIELD     LGT SNOW  23  21  93 N10       30.06S WCI  12
BUFFALO        LGT SNOW  22  20  91 NW9       30.06R WCI  12
MAPLE LAKE     LGT SNOW  23  21  93 NW9       30.05S WCI  13
$$
MNZ037-044-045-052-053-271200-
   East Central Minnesota

CITY           SKY/WX    TMP DP  RH WIND       PRES   REMARKS
PRINCETON      CLOUDY    25  19  80 NW8       30.04R WCI  16
MORA           CLOUDY    23  18  80 N6        30.04S WCI  16
CAMBRIDGE      LGT SNOW  25  18  74 N8        30.02R WCI  16
RUSH CITY      FLURRIES  23  20  88 N5        30.03R WCI  17
MOOSE LAKE     CLOUDY    23  18  80 N12       30.01S WCI  12
HINCKLEY       CLOUDY    25  19  80 CALM      30.01S
CLOQUET        CLOUDY    21  16  79 NW10      30.00F WCI  10
MCGREGOR       CLOUDY    21  18  86 N9        30.04S WCI  11
$$
MNZ071>073-080-081-089-090-097-098-271200-
   Southwest Minnesota

CITY           SKY/WX    TMP DP  RH WIND       PRES   REMARKS
MONTEVIDEO     CLOUDY    16  12  86 N14G20    30.14R WCI   1
GRANITE FALLS  CLOUDY    17  14  88 NW20      30.13S WCI   0
CANBY          CLOUDY    14  10  84 NW14      30.15R WCI  -1
MARSHALL       CLOUDY    16  10  79 N15       30.11R WCI   1
REDWOOD FALLS  LGT SNOW  20  17  88 NW12      30.09R VSB 1   WCI   8
OLIVIA         LGT SNOW  19  18  93 NW13      30.08R WCI   7
PIPESTONE        N/A     18  16  93 N9G16     30.09R WCI   6
WINDOM         LGT SNOW  19  18  93 NW20      30.05S WCI   4
WORTHINGTON    CLOUDY    19 -26  12 NW16      30.07S WCI   5
JACKSON        LGT SNOW  23  19  86 NW22      30.04R WCI   8
TRACY          LGT SNOW  18  15  90 NW13      30.10R WCI   4
SLAYTON        LGT SNOW  16  14  90 NW13      30.08R WCI   2
$$
MNZ065>067-074>077-082>085-091>093-271200-
   South Central Minnesota

CITY           SKY/WX    TMP DP  RH WIND       PRES   REMARKS
MANKATO        CLOUDY    25  19  80 NW17      30.01R WCI  11
NEW ULM        LGT SNOW  21  21 100 NW18      30.06R WCI   6
ST JAMES       LGT SNOW  25  21  86 NW20      30.05S WCI  11
FAIRMONT       CLOUDY    25  19  80 NW20      30.01R WCI  11
GLENCOE        LGT SNOW  24  22  96 NW12      30.04S WCI  12
FARIBAULT      LGT SNOW  25  23  93 NW14G20   29.98R WCI  13
OWATONNA       LGT SNOW  27  25  93 NW15      29.96R WCI  15
ALBERT LEA     LGT SNOW  27  27 100 NW9       29.95R WCI  17
$$
MNZ078>079-086>088-094>096-271200-
   Southeast Minnesota

CITY           SKY/WX    TMP DP  RH WIND       PRES   REMARKS
ROCHESTER      LGT SNOW  28  26  92 NW14      29.90S FOG     WCI  17
RED WING       LGT SNOW  28  27  93 NW5       29.94R VSB 3/4 WCI  23
STANTON        LGT SNOW  27  24  89 N14G20    29.96R VSB 3/4 WCI  16
DODGE CENTER   LGT SNOW  27  27 100 N13       29.92R VSB 3/4 WCI  16
WINONA         LGT SNOW  32  32 100 NW5       29.90R WCI  27
AUSTIN         LGT SNOW  27  27 100 NW12      29.92F WCI  16
PRESTON        CLOUDY    29  28  97 NW8       29.88R WCI  21
$$
ABBREVIATIONS USED IN REMARKS
   TC - TEMPERATURES IN CELSIUS
  WCI - WIND CHILL INDEX
   HX - HEAT INDEX
  VSB - VISIBILITY
$$


USA.gov is the U.S. government's official web portal to all federal, state and local government web resources and services.